Terminal Aerodrome Forecast
Issued by NWS

Home | Current Version | Previous Version | Text Only | Print | Product List | Glossary On
Versions: 1 2 3 4 5 6 7 8 9 10 11 12
000
FTUS46 KSTO 260500
TAFSMF
TAF
KSMF 260526Z 2606/2706 22007KT P6SM SKC
     FM261200 VRB04KT P6SM SKC
     FM262200 24006KT P6SM SKC=

USA.gov is the U.S. government's official web portal to all federal, state and local government web resources and services.